This is the latest recevied weather packets stored in our database for station/object VE3TEJ. If no packets are shown the sender has not sent any weather packets the latest 10 day(s).
| Time | Temp. | Humidity | Pressure | Rain* | Wind** | Luminosity | Snow |
|---|---|---|---|---|---|---|---|
| 1777413436 | 18.33° C | 64% | 1009.4 hPa | 0 mm | - | - | - |
| 1777413137 | 18.33° C | 64% | 1009.6 hPa | 0 mm | - | - | - |
| 1777412838 | 18.33° C | 63% | 1009.2 hPa | 0 mm | - | - | - |
| 1777412537 | 18.89° C | 64% | 1009.1 hPa | 0 mm | - | - | - |
| 1777412237 | 18.33° C | 64% | 1009 hPa | 0 mm | - | - | - |
| 1777411938 | 18.89° C | 64% | 1008.9 hPa | 0 mm | - | - | - |
| 1777411637 | 18.89° C | 64% | 1008.9 hPa | 0 mm | - | - | - |
| 1777411337 | 18.89° C | 64% | 1008.9 hPa | 0 mm | - | - | - |
| 1777411036 | 18.89° C | 64% | 1008.8 hPa | 0 mm | - | - | - |
| 1777410737 | 18.89° C | 65% | 1008.8 hPa | 0 mm | - | - | - |
| 1777410438 | 18.33° C | 66% | 1009.1 hPa | 0 mm | - | - | - |
| 1777410137 | 18.33° C | 65% | 1009.1 hPa | 0 mm | - | - | - |
| 1777409837 | 19.44° C | 64% | 1008.9 hPa | 0 mm | - | - | - |
| 1777409536 | 19.44° C | 64% | 1009 hPa | 0 mm | - | - | - |
| 1777409237 | 18.89° C | 65% | 1008.9 hPa | 0 mm | - | - | - |
| 1777408938 | 18.89° C | 67% | 1008.9 hPa | 0 mm | - | - | - |
| 1777408638 | 18.89° C | 65% | 1008.8 hPa | 0 mm | - | - | - |
| 1777408337 | 18.33° C | 68% | 1008.8 hPa | 0 mm | - | - | - |
| 1777408037 | 18.33° C | 69% | 1008.9 hPa | 0 mm | - | - | - |
| 1777407736 | 18.33° C | 69% | 1008.7 hPa | 0 mm | - | - | - |
| 1777407436 | 18.33° C | 69% | 1008.8 hPa | 0 mm | - | - | - |
| 1777407136 | 18.89° C | 68% | 1008.8 hPa | 0 mm | - | - | - |
| 1777406837 | 18.89° C | 68% | 1008.7 hPa | 0 mm | - | - | - |
| 1777406537 | 18.89° C | 69% | 1008.6 hPa | 0 mm | - | - | - |
| 1777406236 | 18.89° C | 70% | 1008.7 hPa | 0 mm | - | - | - |
* Rain latest hour (hover to see other rain measurements)
** Current wind speed in m/s (hover to see current wind gust speed)